This is the latest recevied weather packets stored in our database for station/object YO6IKB-10. If no packets are shown the sender has not sent any weather packets the latest 10 day(s).
| Time | Temp. | Humidity | Pressure | Rain* | Wind** | Luminosity | Snow |
|---|---|---|---|---|---|---|---|
| 1777964853 | 17.22° C | 57% | 1013.7 hPa | 0 mm | - | - | - |
| 1777964553 | 17.22° C | 58% | 1013.6 hPa | 0 mm | - | - | - |
| 1777964252 | 16.67° C | 59% | 1013.6 hPa | 0 mm | - | - | - |
| 1777963952 | 16.67° C | 58% | 1013.7 hPa | 0 mm | - | - | - |
| 1777963652 | 16.67° C | 59% | 1013.8 hPa | 0 mm | - | - | - |
| 1777963351 | 16.67° C | 60% | 1013.7 hPa | 0 mm | - | - | - |
| 1777963051 | 16.67° C | 60% | 1013.8 hPa | 0 mm | - | - | - |
| 1777962751 | 16.67° C | 59% | 1013.8 hPa | 0 mm | - | - | - |
| 1777962450 | 16.67° C | 59% | 1013.8 hPa | 0 mm | - | - | - |
| 1777962150 | 16.11° C | 59% | 1013.7 hPa | 0 mm | - | - | - |
| 1777961850 | 16.11° C | 59% | 1013.7 hPa | 0 mm | - | - | - |
| 1777961550 | 16.11° C | 58% | 1013.7 hPa | 0 mm | - | - | - |
| 1777961249 | 16.67° C | 58% | 1013.8 hPa | 0 mm | - | - | - |
| 1777960949 | 16.11° C | 59% | 1013.9 hPa | 0 mm | - | - | - |
| 1777960649 | 16.67° C | 59% | 1013.9 hPa | 0 mm | - | - | - |
| 1777960048 | 16.11° C | 61% | 1013.7 hPa | 0 mm | - | - | - |
| 1777959748 | 15° C | 63% | 1013.7 hPa | 0 mm | - | - | - |
| 1777959448 | 14.44° C | 64% | 1013.8 hPa | 0 mm | - | - | - |
| 1777959147 | 13.89° C | 65% | 1013.8 hPa | 0 mm | - | - | - |
| 1777958847 | 12.78° C | 66% | 1013.8 hPa | 0 mm | - | - | - |
| 1777958547 | 12.22° C | 67% | 1013.8 hPa | 0 mm | - | - | - |
| 1777958246 | 12.22° C | 67% | 1013.7 hPa | 0 mm | - | - | - |
| 1777957946 | 12.22° C | 68% | 1013.7 hPa | 0 mm | - | - | - |
| 1777957646 | 11.67° C | 69% | 1013.6 hPa | 0 mm | - | - | - |
| 1777957346 | 11.67° C | 70% | 1013.6 hPa | 0 mm | - | - | - |
* Rain latest hour (hover to see other rain measurements)
** Current wind speed in m/s (hover to see current wind gust speed)